Weather History for Westhampton Beach, NY

Change the Weather History Date:

Thursday, December 29, 2011

  Actual Average Record
Temperature  
Mean Temperature 28 °F -  
Max Temperature 34 °F 39 °F 55 °F (2013)
Min Temperature 21 °F 23 °F 15 °F (2010)
Degree Days  
Heating Degree Days 38    
Moisture  
Dew Point 12 °F    
Average Humidity 52    
Maximum Humidity 69    
Minimum Humidity 31    
Precipitation  
Precipitation 0.00 in - - ()
Sea Level Pressure  
Sea Level Pressure 29.99 in    
Wind  
Wind Speed 11 mph (West)    
Max Wind Speed 21 mph    
Max Gust Speed 30 mph    
Visibility 10 miles    
Events      
Averages and records for this station are not official NWS values.
T = Trace of Precipitation, MM = Missing Value Source: NWS Daily Summary

Daily Weather History Graph

Daily Weather History Graph

Search for Another Location

Airport:

Trip Planner

Search our weather history database for the weather conditions in past years. The results will help you decide how hot, cold, wet, or windy it might be!

Date:

Astronomy

Dec. 29, 2011 Rise Set
Actual Time 7:14 AM EST 4:30 PM EST
Civil Twilight 6:43 AM EST 5:01 PM EST
Nautical Twilight 6:08 AM EST 5:36 PM EST
Astronomical Twilight 5:35 AM EST 6:09 PM EST
Moon 10:04 AM EST (12/29) 10:06 PM EST (12/29)
Length of Visible Light 10h 18m
Length of Day
9h 16m
Waxing Crescent, 26% of the Moon is Illuminated
Dec 29
Waxing Crescent
Jan 1
First Quarter
Jan 9
Full
Jan 16
Last Quarter
Jan 23
New

Hourly Weather History & Observations

Time (EST) Temp. Windchill Dew Point Humidity Pressure Visibility Wind Dir Wind Speed Gust Speed Precip Events Conditions
12:53 AM 30.0 °F 17.2 °F 15.1 °F 54% 29.81 in 10.0 mi WNW 20.7 mph 29.9 mph N/A   Clear
1:53 AM 28.9 °F 17.3 °F 10.9 °F 47% 29.82 in 10.0 mi WNW 16.1 mph 25.3 mph N/A   Clear
2:53 AM 28.0 °F 16.1 °F 10.0 °F 47% 29.86 in 10.0 mi WNW 16.1 mph 23.0 mph N/A   Clear
3:53 AM 27.0 °F 14.7 °F 9.0 °F 47% 29.88 in 10.0 mi WNW 16.1 mph 24.2 mph N/A   Clear
4:53 AM 26.1 °F 15.0 °F 10.0 °F 51% 29.92 in 10.0 mi WNW 12.7 mph 21.9 mph N/A   Clear
5:53 AM 25.0 °F 14.8 °F 9.0 °F 51% 29.94 in 10.0 mi WNW 10.4 mph - N/A   Clear
6:53 AM 21.9 °F 14.5 °F 10.0 °F 60% 29.98 in 10.0 mi West 5.8 mph - N/A   Clear
7:53 AM 21.0 °F 14.6 °F 10.9 °F 65% 29.99 in 10.0 mi WSW 4.6 mph - N/A   Clear
8:53 AM 27.0 °F 18.7 °F 10.9 °F 51% 30.03 in 10.0 mi West 8.1 mph - N/A   Clear
10:53 AM 30.9 °F 21.7 °F 10.0 °F 42% 30.03 in 10.0 mi West 11.5 mph - N/A   Clear
11:53 AM 32.0 °F 24.8 °F 10.0 °F 40% 29.99 in 10.0 mi West 8.1 mph - N/A   Clear
12:53 PM 33.1 °F 26.1 °F 10.0 °F 38% 29.99 in 10.0 mi SW 8.1 mph - N/A   Clear
1:53 PM 34.0 °F 25.5 °F 6.1 °F 31% 29.99 in 10.0 mi WSW 11.5 mph - N/A   Clear
2:53 PM 32.0 °F 23.6 °F 10.0 °F 40% 30.01 in 10.0 mi SW 10.4 mph - N/A   Clear
3:53 PM 32.0 °F 24.2 °F 9.0 °F 38% 30.03 in 10.0 mi WSW 9.2 mph - N/A   Clear
4:53 PM 28.9 °F 21.9 °F 10.9 °F 47% 30.03 in 10.0 mi WSW 6.9 mph - N/A   Clear
5:53 PM 28.0 °F - 14.0 °F 56% 30.03 in 10.0 mi Calm Calm - N/A   Mostly Cloudy
6:53 PM 28.9 °F - 17.1 °F 61% 30.04 in 10.0 mi Calm Calm - N/A   Overcast
7:53 PM 30.0 °F - 18.0 °F 61% 30.05 in 10.0 mi Calm Calm - N/A   Overcast
8:53 PM 28.9 °F - 17.1 °F 61% 30.06 in 10.0 mi Calm Calm - N/A   Overcast
9:53 PM 30.0 °F - 19.0 °F 64% 30.07 in 10.0 mi Calm Calm - N/A   Overcast
10:53 PM 28.0 °F - 18.0 °F 66% 30.06 in 10.0 mi Calm Calm - N/A   Clear
11:53 PM 28.0 °F - 19.0 °F 69% 30.06 in 10.0 mi Calm Calm - N/A   Overcast